TimeEST,TemperatureF,Dew PointF,Humidity,Sea Level PressureIn,VisibilityMPH,Wind Direction,Wind SpeedMPH,Gust SpeedMPH,PrecipitationIn,Events,Conditions,WindDirDegrees,DateUTC
12:17 AM,-8.7,-16.2,69,30.14,10.0,North,4.6,-,N/A,,Clear,350,2014-01-21 05:17:00
12:36 AM,-9.9,-16.6,72,30.14,10.0,Calm,Calm,-,N/A,,Clear,0,2014-01-21 05:36:00
12:56 AM,-10.5,-16.4,75,30.14,10.0,Calm,Calm,-,N/A,,Clear,0,2014-01-21 05:56:00
1:17 AM,-12.8,-18.4,76,30.15,10.0,Calm,Calm,-,N/A,,Clear,0,2014-01-21 06:17:00
1:36 AM,-13.9,-18.4,80,30.15,10.0,Calm,Calm,-,N/A,,Clear,0,2014-01-21 06:36:00
1:57 AM,-13.2,-18.2,78,30.15,10.0,Calm,Calm,-,N/A,,Clear,0,2014-01-21 06:57:00
2:17 AM,-13.2,-19.5,73,30.15,10.0,Calm,Calm,-,N/A,,Clear,0,2014-01-21 07:17:00
2:36 AM,-11.6,-18.8,70,30.16,10.0,Calm,Calm,-,N/A,,Clear,0,2014-01-21 07:36:00
2:57 AM,-12.1,-19.1,71,30.17,10.0,Calm,Calm,-,N/A,,Clear,0,2014-01-21 07:57:00
3:17 AM,-12.6,-19.5,72,30.17,10.0,Calm,Calm,-,N/A,,Clear,0,2014-01-21 08:17:00
3:36 AM,-15.2,-21.3,74,30.18,10.0,Calm,Calm,-,N/A,,Clear,0,2014-01-21 08:36:00
3:57 AM,-16.8,-22.9,74,30.18,10.0,Calm,Calm,-,N/A,,Clear,0,2014-01-21 08:57:00
4:17 AM,-18.2,-24.9,72,30.19,10.0,Calm,Calm,-,N/A,,Clear,0,2014-01-21 09:17:00
4:36 AM,-19.1,-24.3,77,30.20,10.0,Calm,Calm,-,N/A,,Clear,0,2014-01-21 09:36:00
4:57 AM,-20.4,-25.8,76,30.20,10.0,Calm,Calm,-,N/A,,Clear,0,2014-01-21 09:57:00
5:17 AM,-20.4,-25.4,78,30.20,10.0,Calm,Calm,-,N/A,,Clear,0,2014-01-21 10:17:00
5:36 AM,-21.8,-27.2,76,30.20,10.0,Calm,Calm,-,N/A,,Clear,0,2014-01-21 10:36:00
5:57 AM,-22.0,-27.6,75,30.20,10.0,Calm,Calm,-,N/A,,Clear,0,2014-01-21 10:57:00
6:16 AM,-22.9,-28.1,77,30.21,10.0,Calm,Calm,-,N/A,,Clear,0,2014-01-21 11:16:00
6:37 AM,-23.4,-28.7,77,30.21,10.0,Calm,Calm,-,N/A,,Clear,0,2014-01-21 11:37:00
6:57 AM,-24.2,-29.6,76,30.22,10.0,Calm,Calm,-,N/A,,Clear,0,2014-01-21 11:57:00
7:16 AM,-23.8,-29.6,74,30.23,10.0,Calm,Calm,-,N/A,,Clear,0,2014-01-21 12:16:00
7:37 AM,-24.7,-30.6,74,30.23,10.0,Calm,Calm,-,N/A,,Clear,0,2014-01-21 12:37:00
7:57 AM,-26.1,-32.3,73,30.23,10.0,Calm,Calm,-,N/A,,Clear,0,2014-01-21 12:57:00
8:16 AM,-26.0,-32.1,73,30.23,10.0,Calm,Calm,-,N/A,,Clear,0,2014-01-21 13:16:00
8:37 AM,-24.0,-30.3,72,30.23,10.0,Calm,Calm,-,N/A,,Clear,0,2014-01-21 13:37:00
8:56 AM,-23.4,-29.4,74,30.23,10.0,Calm,Calm,-,N/A,,Clear,0,2014-01-21 13:56:00
9:17 AM,-22.4,-27.9,75,30.23,10.0,Calm,Calm,-,N/A,,Clear,0,2014-01-21 14:17:00
9:37 AM,-15.9,-21.3,77,30.23,10.0,Calm,Calm,-,N/A,,Scattered Clouds,0,2014-01-21 14:37:00
9:56 AM,-13.7,-19.7,75,30.23,10.0,Calm,Calm,-,N/A,,Mostly Cloudy,0,2014-01-21 14:56:00
10:17 AM,-12.5,-19.3,72,30.23,10.0,NNE,3.5,-,N/A,,Overcast,20,2014-01-21 15:17:00
10:37 AM,-11.6,-19.3,69,30.23,10.0,North,3.5,-,N/A,,Overcast,350,2014-01-21 15:37:00
10:56 AM,-10.3,-19.5,64,30.24,10.0,North,4.6,-,N/A,,Overcast,350,2014-01-21 15:56:00
11:17 AM,-10.8,-20.0,64,30.25,10.0,NNW,3.5,-,N/A,,Scattered Clouds,340,2014-01-21 16:17:00
11:37 AM,-10.7,-20.2,63,30.25,10.0,Calm,Calm,-,N/A,,Clear,0,2014-01-21 16:37:00
11:56 AM,-10.3,-20.4,61,30.25,10.0,Calm,Calm,-,N/A,,Clear,0,2014-01-21 16:56:00
12:17 PM,-9.6,-20.2,60,30.23,10.0,North,3.5,-,N/A,,Clear,10,2014-01-21 17:17:00
12:36 PM,-8.5,-19.7,58,30.23,10.0,North,3.5,-,N/A,,Clear,350,2014-01-21 17:36:00
12:57 PM,-7.4,-19.3,56,30.22,10.0,Calm,Calm,-,N/A,,Clear,0,2014-01-21 17:57:00
1:17 PM,-6.9,-19.3,55,30.21,10.0,Calm,Calm,-,N/A,,Clear,0,2014-01-21 18:17:00
1:36 PM,-6.3,-18.6,55,30.20,10.0,Calm,Calm,-,N/A,,Clear,0,2014-01-21 18:36:00
1:52 PM,-4.7,-18.0,53,30.20,10.0,Calm,Calm,-,N/A,,Clear,0,2014-01-21 18:52:00
6:57 PM,-13.7,-18.4,80,30.18,10.0,Calm,Calm,-,N/A,,Clear,0,2014-01-21 23:57:00
6:58 PM,-13.5,-18.4,79,30.18,10.0,Calm,Calm,-,N/A,,Clear,0,2014-01-21 23:58:00
7:17 PM,-17.1,-22.4,77,30.18,10.0,Calm,Calm,-,N/A,,Clear,0,2014-01-22 00:17:00
7:36 PM,-14.8,-19.8,78,30.18,10.0,Calm,Calm,-,N/A,,Clear,0,2014-01-22 00:36:00
7:57 PM,-18.6,-23.8,77,30.18,10.0,Calm,Calm,-,N/A,,Clear,0,2014-01-22 00:57:00
8:16 PM,-18.4,-23.8,76,30.17,10.0,Calm,Calm,-,N/A,,Clear,0,2014-01-22 01:16:00
8:37 PM,-19.3,-24.7,76,30.17,10.0,Calm,Calm,-,N/A,,Clear,0,2014-01-22 01:37:00
8:57 PM,-20.9,-26.5,75,30.16,10.0,Calm,Calm,-,N/A,,Clear,0,2014-01-22 01:57:00
9:16 PM,-18.8,-24.0,77,30.15,10.0,Calm,Calm,-,N/A,,Clear,0,2014-01-22 02:16:00
9:37 PM,-20.2,-26.3,73,30.15,10.0,Calm,Calm,-,N/A,,Clear,0,2014-01-22 02:37:00
9:56 PM,-20.6,-26.7,73,30.15,10.0,Calm,Calm,-,N/A,,Clear,0,2014-01-22 02:56:00
10:17 PM,-18.8,-24.7,74,30.16,7.0,Calm,Calm,-,N/A,,Clear,0,2014-01-22 03:17:00
10:37 PM,-21.3,-27.4,73,30.15,10.0,Calm,Calm,-,N/A,,Clear,0,2014-01-22 03:37:00
10:56 PM,-23.1,-29.0,74,30.15,10.0,Calm,Calm,-,N/A,,Clear,0,2014-01-22 03:56:00
11:17 PM,-21.8,-27.9,73,30.14,10.0,Calm,Calm,-,N/A,,Clear,0,2014-01-22 04:17:00
11:37 PM,-22.7,-28.8,73,30.15,10.0,Calm,Calm,-,N/A,,Mostly Cloudy,0,2014-01-22 04:37:00
11:56 PM,-19.3,-25.4,73,30.14,10.0,Calm,Calm,-,N/A,,Overcast,0,2014-01-22 04:56:00